Location: Unspecified
(0.0000°N, 0.0000°E)
Time: 18:53:21
(UTC+00:00)

deb Explorer IX - All Passes

Search period start: 10 August 2020 00:00
Search period end: 20 August 2020 00:00
Orbit: 542 x 1102 km, 38.8° (Epoch: 09 August)

Date Brightness Start Highest point End Pass type
(mag) Time Alt. Az. Time Alt. Az. Time Alt. Az.
10 Aug - 08:26:17 10° SSW 08:32:39 32° SE 08:38:38 10° E daylight
10 Aug - 10:13:06 10° WSW 10:20:04 54° NW 10:26:17 10° NE daylight
10 Aug - 21:09:21 10° NW 21:13:24 55° NE 21:17:52 10° ESE visible
10 Aug - 22:57:40 10° WSW 23:00:19 15° SW 23:03:12 10° S night (unlit)
11 Aug - 08:03:02 10° SSW 08:09:27 32° SE 08:15:35 10° E daylight
11 Aug - 09:49:51 10° WSW 09:56:53 54° NW 10:03:15 10° NE daylight
11 Aug - 20:46:26 10° NW 20:50:26 56° NE 20:54:47 10° ESE visible
11 Aug - 22:34:55 10° WSW 22:37:20 14° SW 22:39:55 10° S night (unlit)
12 Aug - 07:39:47 10° SSW 07:46:14 33° SE 07:52:29 10° E daylight
12 Aug - 09:26:35 10° WSW 09:33:40 54° NW 09:40:11 10° NE daylight
12 Aug - 20:23:30 10° NW 20:27:28 57° NE 20:31:43 10° ESE visible
12 Aug - 22:12:10 10° WSW 22:14:20 13° SW 22:16:37 10° S night (unlit)
13 Aug - 07:16:33 10° SSW 07:23:00 33° SE 07:29:21 10° ENE daylight
13 Aug - 09:03:20 10° WSW 09:10:27 54° NW 09:17:05 10° NE daylight
13 Aug - 20:00:32 10° NW 20:04:31 58° NE 20:08:40 10° ESE visible
13 Aug - 21:49:25 10° WSW 21:51:20 13° SW 21:53:19 10° S night (unlit)
14 Aug - 06:53:20 10° SSW 06:59:46 34° SE 07:06:10 10° ENE daylight
14 Aug - 08:40:05 10° WSW 08:47:12 54° NW 08:53:57 10° NE daylight
14 Aug - 19:37:32 10° NW 19:41:32 59° NE 19:45:38 10° ESE visible
14 Aug - 21:26:40 10° WSW 21:28:19 12° SW 21:30:02 10° SSW night (unlit)
15 Aug - 06:30:07 10° SSW 06:36:31 34° SE 06:42:58 10° ENE daylight
15 Aug - 08:16:50 10° WSW 08:23:56 53° NW 08:30:48 10° NE daylight
15 Aug - 10:11:18 10° NW 10:11:32 10° NW 10:11:48 10° NW daylight
15 Aug - 19:14:31 10° NW 19:18:33 61° NE 19:22:36 10° ESE visible
15 Aug - 21:03:55 10° WSW 21:05:19 11° SW 21:06:43 10° SSW visible
16 Aug - 06:06:55 10° SSW 06:13:15 34° SE 06:19:45 10° ENE daylight
16 Aug - 07:53:36 10° WSW 08:00:40 53° NW 08:07:36 10° NE daylight
16 Aug - 09:47:34 10° NW 09:48:21 10° NW 09:49:07 10° NNW daylight
16 Aug - 18:51:28 10° NW 18:55:34 63° NE 18:59:35 10° ESE visible
16 Aug - 20:41:10 10° SW 20:42:17 11° SW 20:43:24 10° SSW visible
17 Aug - 05:43:44 10° SSW 05:49:59 34° SE 05:56:29 10° ENE daylight
17 Aug - 07:30:22 10° WSW 07:37:23 52° NW 07:44:22 10° NE daylight
17 Aug - 09:24:08 10° NW 09:25:07 10° NW 09:26:06 10° NNW daylight
17 Aug - 18:28:23 10° NW 18:32:33 64° NE 18:36:35 10° ESE visible
17 Aug - 20:18:25 10° SW 20:19:14 10° SW 20:20:05 10° SSW visible
18 Aug - 05:20:34 10° SSW 05:26:43 34° SE 05:33:12 10° ENE visible
18 Aug - 07:07:09 10° WSW 07:14:05 52° NW 07:21:08 10° NNE daylight
18 Aug - 09:00:49 10° NW 09:01:53 10° NW 09:02:57 10° NNW daylight
18 Aug - 18:05:16 10° NW 18:09:33 66° NE 18:13:35 10° ESE daylight
18 Aug - 19:55:41 10° SW 19:56:12 10° SW 19:56:42 10° SSW visible
19 Aug - 04:57:24 10° SSW 05:03:26 34° SE 05:09:54 10° ENE visible
19 Aug - 06:43:57 10° WSW 06:50:47 51° NW 06:57:50 10° NNE daylight
19 Aug - 08:37:34 10° NW 08:38:39 10° NW 08:39:42 10° NNW daylight
19 Aug - 17:42:08 10° NW 17:46:31 68° NE 17:50:35 10° SE daylight
